This is the latest recevied weather packets stored in our database for station/object K3HW. If no packets are shown the sender has not sent any weather packets the latest 10 day(s).
| Time | Temp. | Humidity | Pressure | Rain* | Wind** | Luminosity | Snow |
|---|---|---|---|---|---|---|---|
| 1777557728 | 11.67° C | 84% | 1011.3 hPa | 0 mm | - | 75 W/m² | - |
| 1777557426 | 12.22° C | 84% | 1011.1 hPa | 0 mm | - | 91 W/m² | - |
| 1777557122 | 12.22° C | 85% | 1011.1 hPa | 0 mm | - | 71 W/m² | - |
| 1777556817 | 12.22° C | 86% | 1011.2 hPa | 0 mm | - | 138 W/m² | - |
| 1777556514 | 11.67° C | 86% | 1010.9 hPa | 0 mm | - | 104 W/m² | - |
| 1777556213 | 11.67° C | 87% | 1010.8 hPa | 0 mm | - | 140 W/m² | - |
| 1777555909 | 11.11° C | 88% | 1010.8 hPa | 0 mm | - | 125 W/m² | - |
| 1777555605 | 11.11° C | 89% | 1011 hPa | 0 mm | - | 123 W/m² | - |
| 1777555302 | 11.11° C | 90% | 1011 hPa | 0 mm | - | 107 W/m² | - |
| 1777554998 | 11.11° C | 91% | 1011 hPa | 0 mm | - | 93 W/m² | - |
| 1777554696 | 10.56° C | 91% | 1011.2 hPa | 0 mm | - | 121 W/m² | - |
| 1777554392 | 10.56° C | 91% | 1011.2 hPa | 0 mm | - | 61 W/m² | - |
| 1777554089 | 10.56° C | 91% | 1011.3 hPa | 0 mm | - | 69 W/m² | - |
| 1777553786 | 10.56° C | 92% | 1011.4 hPa | 0 mm | - | 44 W/m² | - |
| 1777553483 | 10° C | 92% | 1011.2 hPa | 0 mm | - | 39 W/m² | - |
| 1777553178 | 10° C | 92% | 1011.3 hPa | 0 mm | - | 34 W/m² | - |
| 1777552874 | 10° C | 92% | 1011.2 hPa | 0 mm | - | 43 W/m² | - |
| 1777552569 | 10° C | 92% | 1011.1 hPa | 0 mm | - | 43 W/m² | - |
| 1777552266 | 10° C | 92% | 1011.3 hPa | 0 mm | - | 28 W/m² | - |
| 1777551962 | 10° C | 92% | 1011.3 hPa | 0 mm | - | 27 W/m² | - |
| 1777551660 | 10° C | 92% | 1011.4 hPa | 0 mm | - | 19 W/m² | - |
| 1777551358 | 10° C | 92% | 1011.3 hPa | 0 mm | - | 11 W/m² | - |
| 1777551054 | 10° C | 92% | 1011.3 hPa | 0 mm | - | 24 W/m² | - |
| 1777550750 | 10° C | 92% | 1011 hPa | 0 mm | - | 26 W/m² | - |
| 1777550447 | 10° C | 92% | 1011.2 hPa | 0 mm | - | 28 W/m² | - |
* Rain latest hour (hover to see other rain measurements)
** Current wind speed in m/s (hover to see current wind gust speed)